Погода в Ербогачене

Погода в Ербогачене : погода сейчас, прогноз погоды и архив. Всё, что Вы хотите узнать о погоде в Ербогачене!

Хотите узнать прогноз погоды в Ербогачене? Тогда Вам сюда: Погода в Ербогачене

Поиск расширенной информации на нашем сайте:

Другие новости

Новости СМИ2

Главная страница сайта

Новости сайта

03.07.2017

Напоминаем, что на нашем специализированном сайте Метеоцентр.Азия вы можете получить высокодетализированные автоматические прогнозы погоды по пунктам России, СНГ и мира в авиационном формате (включающие направление и скорость ветра, видимость, явления погоды, количество и форму облачности, нижнюю и верхнюю границу облачности).

Рекомендуем: Понятие и виды налоговых споров.

Погода в Ербогачене - сегодня

Время (UTC), дата Ветер
(°,м/с) 
Видим.   Явления Облачность Т
(°С)
Тd
(°С)
f(%) Тe
(°С)
Pmin
(гПа)
dP
(гПа)
Po
(мм)
O2
(г/м3)
Тmin Tmax R s Состояние
почвы
21 20.11.17 тихо ()   н/о  {снег}  ясно 
-29.9 -31.4 87 -30  1021.6  1.3  737  335           
00 21.11.17 тихо ()   н/о  {снег}  1/0 средняя 
[Ac lent]
-31.4 -33.6 81 -31  1023.1  1.2  737  338  -31.5    0.2  28  равномерный
сухой снег
100% 
03 21.11.17 тихо ()   20000 м    4/0 средняя, верхняя 
[Ac lent|Cc]
-30.9 -33.2 80 -31  1024.1  738  337  -32.8         
06 21.11.17 240 (ЮЗ) 20000 м    6/0 средняя, верхняя 
[Ac trans|Ci fib]
-23.4 -25.9 80 -24  1024.1  1.2  739  327           
09 21.11.17 270 (З) н/о    8/3 1000 м средняя, верхняя 
[Sc|Ac trans|Cc]
-23.5 -26 80 -27  1025.1  740  328           
12 21.11.17 280 (З) н/о    6/0 средняя, верхняя 
[Ac lent|Ci fib]
-23.7 -26.3 79 -27  1026.6  1.3  741  329    -23.4       
15 21.11.17 260 (З) н/о    4/0 средняя, верхняя 
[Ac lent|Ci fib]
-24.7 -27.2 80 -25  1027.3  0.6  741  330           
18 21.11.17 тихо ()   н/о    ясно 
-26.4 -28.9 79 -26  1028.3  0.7  742  333           
21 21.11.17 тихо ()   н/о    3/0 средняя 
[Ac lent]
-27 -29.5 79 -27  1028.4  0.1  742  334           
00 22.11.17 тихо ()   н/о    10/0 средняя, верхняя 
[Ac lent|Cs]
-24.8 -27.3 80 -25  1028.3  0.2  742  331  -27.6      28  равномерный
сухой снег
100% 
03 22.11.17 280 (З) 20000 м    10/0 средняя, верхняя 
[Ac lent|Ci fib]
-25.3 -27.8 80 -29  1028.6  0.1  742  331           
06 22.11.17 тихо ()   20000 м    10/0 средняя, верхняя 
[Ac lent|Ci fib]
-24.8 -27.3 80 -25  1029  0.5  743  331           
09 22.11.17 тихо ()   20000 м    9/0 средняя 
[Ac trans]
-26.2 -28.7 79 -26  1030.4  743  333           
12 22.11.17 тихо ()   н/о    6/0 верхняя 
[Ci fib]
-28.5 -31 79 -29  1031.3  0.6  744  336    -24.8       
15 22.11.17 тихо ()   н/о    ясно 
-30.5 -33 79 -31  1032.1  0.5  744  339           
18 22.11.17 тихо ()   н/о    ясно 
-30.6 -33 79 -31  1032.7  0.6  745  340           
21 22.11.17 тихо ()   н/о    ясно 
-31.1 -33.5 79 -31  1033.4  0.3  745  341           
00 23.11.17 тихо ()   н/о    3/0 средняя 
[Ac lent]
-33.2 -35.6 79 -33  1034.4  0.9  745  344  -33.4      28  равномерный
сухой снег
100% 
03 23.11.17 тихо ()   20000 м    10/0 верхняя 
[Ci fib]
-35.4 -37.7 79 -35  1035.8  746  347  -35.9         
06 23.11.17 тихо ()   20000 м    ясно 
-29.3 -31.8 79 -29  1035.3  0.5  746  339           
09 23.11.17 тихо ()   н/о    ясно 
-33.1 -35.4 80 -33  1036.9  0.8  747  345           
12 23.11.17 тихо ()   н/о    ясно 
-38 -40.9 74 -38  1037.8  0.1  747  352    -29.3       
15 23.11.17 тихо ()   н/о  туман на расстоянии  ясно 
-41 -43.8 75 -41  1038.2  -0.1  747  356           
18 23.11.17 тихо ()   н/о  туман на расстоянии  ясно 
-43 -45.6 75 -43  1038.2  -0.3  747  359           
21 23.11.17 тихо ()   н/о  туман на расстоянии  ясно 
-43.2 -45.6 77 -43  1038.3  0.1  747  360           
Время (UTC), дата Ветер
(°,м/с) 
Видим.   Явления Облачность Т
(°С)
Тd
(°С)
f(%) Тe
(°С)
Pmin
(гПа)
dP
(гПа)
Po
(мм)
O2
(г/м3)
Тmin Tmax R s Состояние
почвы

Для получения пояснительной информации подведите курсор к названию столбца.

ПОГОДА в Ербогачене - архив

Всё, что Вы хотите узнать о погоде в Ербогачене - удобно и подробно!

Выберите нужную дату (начиная с 1 января 2015* года) и нажмите кнопку "Найти".
Будут отображены архивные сводки погоды по пункту Ербогачен, начиная с указанной даты.


Отображать данные в формате CSV (для использования в таблицах Excel)


Внимание! Наш архив погоды предназначен исключительно для личного некоммерческого использования в познавательных целях. Если Вам необходимы официальные справки о состоянии погоды (для производственных, юридических, коммерческих и т.п. целей), обращайтесь в органы Росгидромета.

*Примечание: данная дата относится к архиву по метеостанциям СССР (Россия, СНГ, Балтия).
Архив по метеостанциям Зарубежной Европы и Азии (кроме Китая) хранится 10 дней, по другим регионам земного шара (Китай, Африка, Америка, Австралия, Океания) - 1 день.

Ербогачен - район местоположения метеостанции


Название, широта, долгота, высота метеостанции:
Ербогачен 61.3°ш. 108°д. 291 м над ур. моря [Российская Федерация]

Дополнительная информация

В oтличие oт бoльшинства пoгoдных сайтoв мы публикуем пoдрoбную метеoинфoрмацию в детальнoм прoфессиoнальнoм фoрмате.

Характеристики температуры и влажнoсти вoздуха измеряются на высoте 2 м в тени вдали oт зданий и деревьев.
Скoрoсть ветра измеряется на высoте 10 м (на урoвне рoста челoвека скoрoсть ветра ниже в 1.5-2 раза). Если метеoстанция нахoдится в гoрoде или в лесу, тo скoрoсть ветра занижена на 2-4 м/с пo сравнению с oткрытым местoм. Скoрoсть ветра над акватoриями крупных рек и oзёр, а также на вершинах хoлмoв на 2-5 м/с выше, чем в oбычных услoвиях.
Атмoсфернoе давление в разных тoчках местнoсти мoжет значительнo oтличаться oт давления на метеoстанции, в зависимoсти oт услoвий рельефа (при пoдъёме на 10 м давление пoнижается примернo на 1 мм рт.ст.).